IRIDIUM 106 1 41917U 17003A 26093.58270795 .00000187 00000+0 59877-4 0 9991 2 41917 86.3935 119.7560 0002582 98.7773 261.3715 14.34217017482510 IRIDIUM 103 1 41918U 17003B 26093.84909550 .00000191 00000+0 61297-4 0 9993 2 41918 86.3934 119.5445 0001975 95.9752 264.1669 14.34219829482579 IRIDIUM 109 1 41919U 17003C 26093.57636840 .00000052 00000+0 11346-4 0 9999 2 41919 86.3936 119.7168 0002204 93.7792 266.3656 14.34218047482506 IRIDIUM 102 1 41920U 17003D 26093.61442263 -.00000005 00000+0 -89362-5 0 9994 2 41920 86.3936 119.6258 0002250 91.8088 268.3365 14.34216592482596 IRIDIUM 105 1 41921U 17003E 26093.50728078 .00000173 00000+0 54520-4 0 9995 2 41921 86.3913 88.1016 0002193 89.4418 270.7029 14.34399333484434 IRIDIUM 104 1 41922U 17003F 26093.62710807 -.00000055 00000+0 -26665-4 0 9990 2 41922 86.3938 119.6620 0001888 89.5532 270.5880 14.34216483482582 IRIDIUM 114 1 41923U 17003G 26093.56368316 -.00000029 00000+0 -17460-4 0 9992 2 41923 86.3938 119.6720 0001946 93.7040 266.4378 14.34217242482557 IRIDIUM 108 1 41924U 17003H 26093.45243721 .00000200 00000+0 64409-4 0 9997 2 41924 86.3909 88.0155 0002352 87.2933 272.8532 14.34219570484391 IRIDIUM 112 1 41925U 17003J 26093.62076666 .00000026 00000+0 22239-5 0 9991 2 41925 86.3931 119.4939 0002165 90.7024 269.4420 14.34217717482586 IRIDIUM 111 1 41926U 17003K 26093.60808167 -.00000035 00000+0 -19606-4 0 9994 2 41926 86.3937 119.5680 0002093 94.6592 265.4843 14.34217253482568 IRIDIUM 113 1 42803U 17039A 26093.79735219 -.00000139 00000+0 -56740-4 0 9990 2 42803 86.4023 353.2716 0001815 79.1935 280.9465 14.34219619460529 IRIDIUM 123 1 42804U 17039B 26093.76906125 .00000460 00000+0 15717-3 0 9997 2 42804 86.4013 24.7271 0002144 89.9239 270.2202 14.34219298459282 IRIDIUM 120 1 42805U 17039C 26093.79100905 .00000395 00000+0 13415-3 0 9993 2 42805 86.4013 353.0666 0002317 85.9278 274.2183 14.34219082460511 IRIDIUM 115 1 42806U 17039D 26093.44925636 .00000493 00000+0 14056-3 0 9993 2 42806 86.4549 353.3277 0002279 94.0416 266.1045 14.43283297463484 IRIDIUM 118 1 42807U 17039E 26093.87054382 -.00000052 00000+0 -25770-4 0 9991 2 42807 86.4007 24.6831 0002013 83.3270 276.8155 14.34217038459297 IRIDIUM 117 1 42808U 17039F 26093.88957029 .00000372 00000+0 12576-3 0 9995 2 42808 86.4014 24.6334 0002159 89.0119 271.1324 14.34219095459325 IRIDIUM 126 1 42809U 17039G 26093.77540427 -.00000029 00000+0 -17268-4 0 9999 2 42809 86.4010 24.7313 0001917 86.4971 273.6444 14.34217337459280 IRIDIUM 124 1 42810U 17039H 26093.66060824 .00000580 00000+0 16641-3 0 9990 2 42810 86.4490 321.5423 0002140 88.4838 271.6608 14.43294582464369 IRIDIUM 128 1 42811U 17039J 26093.83591095 .00000418 00000+0 14216-3 0 9995 2 42811 86.3956 56.2224 0002412 89.4576 270.6896 14.34218959459321 IRIDIUM 121 1 42812U 17039K 26093.86419867 .00000030 00000+0 38101-5 0 9996 2 42812 86.4012 24.7211 0002220 84.4251 275.7198 14.34216491459177 IRIDIUM 133 1 42955U 17061A 26093.86762506 -.00000046 00000+0 -23525-4 0 9992 2 42955 86.3953 56.3253 0002128 88.4183 271.7256 14.34216921444128 IRIDIUM 100 1 42956U 17061B 26093.86128143 -.00000012 00000+0 -11486-4 0 9992 2 42956 86.3950 56.2482 0002096 88.8051 271.3385 14.34217330444125 IRIDIUM 122 1 42957U 17061C 26093.82956739 .00000205 00000+0 66131-4 0 9998 2 42957 86.3956 56.2612 0002168 88.4859 271.6585 14.34217341444126 IRIDIUM 129 1 42958U 17061D 26093.85493773 .00000334 00000+0 11231-3 0 9999 2 42958 86.3956 56.3169 0002090 79.2410 280.9021 14.34218491444147 IRIDIUM 119 1 42959U 17061E 26093.89299409 -.00000005 00000+0 -87041-5 0 9995 2 42959 86.3954 56.2968 0001925 86.3153 273.8263 14.34217332444165 IRIDIUM 107 1 42960U 17061F 26093.63295590 .00000153 00000+0 47661-4 0 9991 2 42960 86.3956 56.4257 0002176 94.9076 265.2369 14.34213176444131 IRIDIUM 132 1 42961U 17061G 26093.63929152 -.00000086 00000+0 -37852-4 0 9998 2 42961 86.3952 56.4036 0002129 88.9819 271.1621 14.34216706444138 IRIDIUM 136 1 42962U 17061H 26093.88030826 .00000395 00000+0 13409-3 0 9999 2 42962 86.3957 56.3088 0002119 88.7278 271.4161 14.34219149444187 IRIDIUM 139 1 42963U 17061J 26093.88664361 .00000415 00000+0 14100-3 0 9999 2 42963 86.3957 56.3669 0002260 89.5701 270.5754 14.34221931444191 IRIDIUM 125 1 42964U 17061K 26093.87396622 -.00000112 00000+0 -47023-4 0 9998 2 42964 86.3957 56.4325 0001620 96.5721 263.5659 14.34216417444202 IRIDIUM 135 1 43070U 17083A 26093.77832362 .00000279 00000+0 92545-4 0 9997 2 43070 86.4018 353.1212 0002226 85.4340 274.7110 14.34218782433480 IRIDIUM 138 1 43071U 17083B 26093.80369308 .00000244 00000+0 79950-4 0 9994 2 43071 86.4035 352.7951 0001823 81.8729 278.2674 14.34218562433477 IRIDIUM 116 1 43072U 17083C 26093.77198170 .00000482 00000+0 16519-3 0 9993 2 43072 86.4017 353.1108 0002417 87.6880 272.4592 14.34218408433507 IRIDIUM 130 1 43073U 17083D 26093.81003683 .00000187 00000+0 59646-4 0 9994 2 43073 86.4026 353.3627 0002272 91.8250 268.3206 14.34218177433456 IRIDIUM 151 1 43074U 17083E 26093.78466411 .00000270 00000+0 89339-4 0 9998 2 43074 86.4019 353.1617 0002248 84.7327 275.4125 14.34216892433478 IRIDIUM 134 1 43075U 17083F 26093.75295328 .00000532 00000+0 18288-3 0 9998 2 43075 86.4022 353.1818 0002210 88.5476 271.5973 14.34218991433438 IRIDIUM 137 1 43076U 17083G 26093.76564281 .00000449 00000+0 15315-3 0 9992 2 43076 86.4023 353.2678 0002610 81.0220 279.1272 14.34220724433505 IRIDIUM 141 1 43077U 17083H 26093.75929931 .00000438 00000+0 14938-3 0 9997 2 43077 86.4017 353.1053 0002093 83.6582 276.4852 14.34218955433506 IRIDIUM 153 1 43078U 17083J 26093.71147367 .00000392 00000+0 13306-3 0 9996 2 43078 86.3967 321.6295 0001894 87.8498 272.2915 14.34218852434600 IRIDIUM 131 1 43079U 17083K 26093.74661046 .00000553 00000+0 19023-3 0 9996 2 43079 86.4025 353.2916 0002210 82.2681 277.8766 14.34219326433436 IRIDIUM 144 1 43249U 18030A 26093.71781681 .00000167 00000+0 52658-4 0 9996 2 43249 86.3967 321.5578 0002269 88.7008 271.4448 14.34217297419468 IRIDIUM 149 1 43250U 18030B 26093.72415949 -.00000024 00000+0 -15535-4 0 9997 2 43250 86.3963 321.5228 0001909 84.6211 275.5202 14.34216692419482 IRIDIUM 157 1 43251U 18030C 26093.60365036 .00000151 00000+0 46997-4 0 9991 2 43251 86.3965 321.6250 0002121 86.7286 273.4153 14.34217912419447 IRIDIUM 140 1 43252U 18030D 26093.69244699 -.00000062 00000+0 -29118-4 0 9991 2 43252 86.3965 321.6002 0002010 88.5731 271.5695 14.34217049419514 IRIDIUM 145 1 43253U 18030E 26093.60999417 .00000081 00000+0 22032-4 0 9995 2 43253 86.3966 321.6076 0002481 90.9378 269.2102 14.34217627419433 IRIDIUM 146 1 43254U 18030F 26093.73050251 .00000311 00000+0 10401-3 0 9996 2 43254 86.3966 321.5696 0002273 87.5126 272.6330 14.34218541419463 IRIDIUM 148 1 43255U 18030G 26093.69878468 .00000320 00000+0 10714-3 0 9997 2 43255 86.3968 321.6249 0002153 85.4136 274.7306 14.34220667419497 IRIDIUM 142 1 43256U 18030H 26093.59730799 .00000297 00000+0 99087-4 0 9995 2 43256 86.3965 321.5591 0002399 90.1691 269.9780 14.34218708419445 IRIDIUM 150 1 43257U 18030J 26093.70513186 .00000252 00000+0 82758-4 0 9996 2 43257 86.3966 321.6278 0002180 88.5512 271.5934 14.34218374419484 IRIDIUM 143 1 43258U 18030K 26093.68610208 .00000389 00000+0 13195-3 0 9996 2 43258 86.3971 321.7251 0002280 88.4265 271.7192 14.34216608419417 IRIDIUM 161 1 43478U 18047C 26093.56900649 .00000228 00000+0 61760-4 0 9990 2 43478 86.4455 119.6815 0002174 84.8211 275.3238 14.43277709414372 IRIDIUM 152 1 43479U 18047D 26093.58905296 -.00000033 00000+0 -18996-4 0 9995 2 43479 86.3936 119.5334 0002034 91.3751 268.7678 14.34217420411799 IRIDIUM 147 1 43480U 18047E 26093.59539674 .00000064 00000+0 15647-4 0 9993 2 43480 86.3932 119.5349 0002367 93.0973 267.0494 14.34217873411797 IRIDIUM 110 1 43481U 18047F 26093.60173822 .00000037 00000+0 60345-5 0 9991 2 43481 86.3934 119.6221 0002000 85.1510 274.9914 14.34217777411789 IRIDIUM 162 1 43482U 18047G 26093.56269274 .00000263 00000+0 72241-4 0 9992 2 43482 86.4455 119.5761 0002225 94.9323 265.2132 14.43276791414369 IRIDIUM 160 1 43569U 18061A 26093.68711132 .00000040 00000+0 70809-5 0 9994 2 43569 86.3913 87.9517 0002229 86.6246 273.5205 14.34217786402691 IRIDIUM 166 1 43570U 18061B 26093.71248233 .00000032 00000+0 45369-5 0 9991 2 43570 86.3911 87.8924 0002356 90.3336 269.8130 14.34217796402725 IRIDIUM 158 1 43571U 18061C 26093.89007419 -.00000043 00000+0 -22449-4 0 9997 2 43571 86.3910 87.8282 0002001 92.0785 268.0640 14.34217141402716 IRIDIUM 165 1 43572U 18061D 26093.70613865 -.00000066 00000+0 -30527-4 0 9997 2 43572 86.3916 87.9503 0002271 90.0022 270.1434 14.34217050402715 IRIDIUM 155 1 43573U 18061E 26093.52854607 -.00000022 00000+0 -14877-4 0 9991 2 43573 86.3908 87.8972 0002132 93.7713 266.3726 14.34217405402657 IRIDIUM 154 1 43574U 18061F 26093.50951909 .00000004 00000+0 -56532-5 0 9997 2 43574 86.3912 88.0351 0002310 89.9727 270.1734 14.34217578402706 IRIDIUM 163 1 43575U 18061G 26093.69979597 .00000020 00000+0 -34380-7 0 9998 2 43575 86.3910 87.8729 0002129 90.3531 269.7909 14.34217620402704 IRIDIUM 156 1 43576U 18061H 26093.46511783 .00000128 00000+0 38689-4 0 9994 2 43576 86.3907 87.9783 0002253 94.4529 265.6925 14.34219090402663 IRIDIUM 164 1 43577U 18061J 26093.44609212 .00000093 00000+0 26021-4 0 9996 2 43577 86.3910 88.0255 0002405 87.0789 273.0682 14.34218358402703 IRIDIUM 159 1 43578U 18061K 26093.48414784 .00000010 00000+0 -35708-5 0 9992 2 43578 86.3910 87.9482 0002044 86.1154 274.0276 14.34217548402675 IRIDIUM 180 1 43922U 19002A 26093.34410798 .00000425 00000+0 14458-3 0 9993 2 43922 86.4014 24.8654 0002169 82.7712 277.3730 14.34218879378261 IRIDIUM 176 1 43923U 19002B 26093.73434423 .00001287 00000+0 20020-3 0 9997 2 43923 86.6132 24.6563 0002587 85.7910 274.3603 14.72263160388294 IRIDIUM 168 1 43924U 19002C 26093.82614219 .00000501 00000+0 17176-3 0 9997 2 43924 86.4017 24.7393 0002146 85.4654 274.6787 14.34220283378315 IRIDIUM 173 1 43925U 19002D 26093.88322755 .00000330 00000+0 11060-3 0 9991 2 43925 86.4014 24.6073 0002114 87.0991 273.0447 14.34218773378300 IRIDIUM 169 1 43926U 19002E 26093.82756850 .00000664 00000+0 21049-3 0 9991 2 43926 86.4210 56.2681 0002079 104.7789 255.3640 14.38609168379537 IRIDIUM 172 1 43927U 19002F 26093.87688564 .00000103 00000+0 29595-4 0 9996 2 43927 86.4011 24.6177 0002153 81.7563 278.3877 14.34218057378314 IRIDIUM 175 1 43928U 19002G 26093.69216407 .00000671 00000+0 19228-3 0 9991 2 43928 86.4519 321.6809 0005283 100.8086 259.3710 14.43583126388239 IRIDIUM 171 1 43929U 19002H 26093.85785470 .00000608 00000+0 20996-3 0 9995 2 43929 86.4026 24.9238 0002357 88.6452 271.5014 14.34217766378305 IRIDIUM 170 1 43930U 19002J 26093.80851407 .00001950 00000+0 30531-3 0 9993 2 43930 86.6134 24.6282 0002402 81.0543 279.0946 14.72253043388313 IRIDIUM 167 1 43931U 19002K 26093.78174595 .00000539 00000+0 18530-3 0 9994 2 43931 86.4014 24.6792 0002434 92.5213 267.6261 14.34216248378294 IRIDIUM 181 1 56726U 23068S 26093.71601551 .00000275 00000+0 75729-4 0 9998 2 56726 86.4448 87.9251 0002482 82.6557 277.4926 14.43312067151693 IRIDIUM 177 1 56727U 23068T 26093.82563967 .00002631 00000+0 34258-3 0 9998 2 56727 86.2020 4.1000 0002236 88.8664 271.2813 14.80245723155365 IRIDIUM 174 1 56728U 23068U 26093.86411683 .00001810 00000+0 28312-3 0 9992 2 56728 86.6134 24.7456 0002601 75.6127 284.5379 14.72244629155081 IRIDIUM 178 1 56729U 23068V 26093.88231677 .00001053 00000+0 13519-3 0 9990 2 56729 86.6526 56.3998 0002848 84.4965 275.6581 14.80228303155378 IRIDIUM 179 1 56730U 23068W 26093.87694441 .00002613 00000+0 34046-3 0 9994 2 56730 86.6751 65.1654 0002807 95.7895 264.3647 14.80236766155379